[ hide orbit diagram ]
For accurate long-term ephemerides, please instead use our Horizons system.This orbit viewer was implemented using two-body methods, and hence should not be used for determining accurate long-term trajectories (over several years or decades) or planetary encounter circumstances.
Orbital Elements at Epoch 2459200.5 (2020-Dec-17.0) TDB
Reference: JPL 41 (heliocentric ecliptic J2000)
Element | Value | Uncertainty (1-sigma) | Units |
e | .1861797723286633 | 1.2117e-08 | |
a | 2.611668952547546 | 1.2196e-08 | au |
q | 2.125429021564405 | 3.3224e-08 | au |
i | 11.92383077736731 | 3.4074e-07 | deg |
node | 287.2197418193417 | 1.7528e-06 | deg |
peri | 78.92591533839939 | 6.1609e-06 | deg |
M | 236.6265995881323 | 9.7269e-06 | deg |
tp | 2459728.817078858359 (2022-May-29.31707886) | 4.4162e-05 | TDB |
period | 1541.613895329692 4.22 | 1.0798e-05 2.956e-08 | d yr |
n | .2335215069678714 | 1.6357e-09 | deg/d |
Q | 3.097908883530687 | 1.4466e-08 | au |
|
| | Orbit Determination Parameters
Additional Information
|
[ show covariance matrix ]
Physical Parameter Table
Parameter |
Symbol |
Value |
Units |
Sigma |
Reference |
Notes |
absolute magnitude |
H |
11.78 |
|
n/a |
E2021B10 |
|
diameter |
diameter |
10.974 |
km |
0.538 |
urn:nasa:pds:neowise_diameters_albedos::2.0[mainbelt] (http://adsabs.harvard.edu/abs/2012ApJ...759L...8M) |
|
rotation period |
rot_per |
6.177 |
h |
n/a |
LCDB (Rev. 2020-October); Warner et al., 2009 |
Published Reference List: [Sergison, D. (2010) Minor Planet Bull. 37, 33-34.] [Behrend, R. (2020) Observatoire de Geneve web site, http://obswww.unige.ch/~behrend/page_cou.html] |
geometric albedo |
albedo |
0.368 |
|
0.049 |
urn:nasa:pds:neowise_diameters_albedos::2.0[mainbelt] (http://adsabs.harvard.edu/abs/2012ApJ...759L...8M) |
|
|
6463 Isoda (1994 AG3) Discovered 1994-Jan-13 by Endate, K., Watanabe, K. at Kitami |
Reference: DISCOVERY.DB | Last Updated: 2003-08-29 |
|
[ show close-approach data ]
Alternate Designations
1994 AG3 = 1950 VF = 1954 QJ = 1980 YA = 1987 KG |
|
|